Hourly Data Report for June 20, 2021

WRIGLEY A
NORTHWEST TERRITORIES
Current Station Operator: NAVCAN

63°12'35.000" N
123°26'12.000" W
149.70 m
2204005
YWY

Download Data

Hourly Data (June 2021)
Hourly Data Report for June 20, 2021
TIME
LST
Temp Definition
°C
Dew Point Definition
°C
Rel Hum Definition
%
Precip. Amount Definition
mm

Wind Dir Definition
10's deg

Wind Spd Definition
km/h
Visibility Definition
km
Stn Press Definition
kPa
Hmdx Definition


Wind Chill Definition


Weather Definition


00:00 16.2 1.4 37 LegendMM 14 12 LegendMM 100.01     LegendNANA
01:00 15.3 2.2 41 LegendMM 14 7 LegendMM 100.03     LegendNANA
02:00 14.4 2.9 46 LegendMM 13 11 LegendMM 100.03     LegendNANA
03:00 14.3 2.7 45 LegendMM 13 11 LegendMM 100.03     LegendNANA
04:00 14.1 2.9 46 LegendMM 13 11 LegendMM 100.03     LegendNANA
05:00 13.8 4.4 53 LegendMM 13 13 LegendMM 100.00     LegendNANA
06:00 14.3 4.8 52 LegendMM 14 12 LegendMM 99.96     LegendNANA
07:00 15.1 6.0 54 LegendMM 14 14 LegendMM 99.92     LegendNANA
08:00 16.3 6.1 51 LegendMM 14 16 LegendMM 99.89     LegendNANA
09:00 17.4 5.5 45 LegendMM 14 18 LegendMM 99.82     LegendNANA
10:00 19.4 5.2 39 LegendMM 15 19 LegendMM 99.75     LegendNANA
11:00 21.0 4.6 34 LegendMM 14 22 LegendMM 99.70     LegendNANA
12:00 22.7 6.0 33 LegendMM 14 19 LegendMM 99.61     LegendNANA
13:00 23.9 6.2 31 LegendMM 16 14 LegendMM 99.54     LegendNANA
14:00 25.1 6.8 31 LegendMM 15 18 LegendMM 99.45 25   LegendNANA
15:00 26.0 7.2 30 LegendMM 14 18 LegendMM 99.37 26   LegendNANA
16:00 26.7 7.8 30 LegendMM 18 12 LegendMM 99.31 27   LegendNANA
17:00 27.3 7.7 29 LegendMM 15 11 LegendMM 99.22 28   LegendNANA
18:00 28.0 7.1 26 LegendMM 14 10 LegendMM 99.13 28   LegendNANA
19:00 27.2 8.5 30 LegendMM 14 5 LegendMM 99.08 28   LegendNANA
20:00 26.5 9.3 33 LegendMM 13 5 LegendMM 99.03 27   LegendNANA
21:00 25.5 9.5 36 LegendMM 11 9 LegendMM 98.99 27   LegendNANA
22:00 24.2 8.8 37 LegendMM 11 11 LegendMM 98.95 25   LegendNANA
23:00 22.6 8.9 41 LegendMM 14 11 LegendMM 98.92     LegendNANA

Notes on Data Quality.

Legend

  • E = Estimated
  • M = Missing
  • NA = Not Available*
  • [empty] = Indicates an unobserved value
Date modified: